EW9436 Weather Reports


time (UTC)temp
C
wind
direction
speed
KPH
gust
KPH
rain 1hr
cm
rain 24hr
cm
rain mn
cm
humidity
%
barometer
mb
20260505091831 10 173 8.0 11.3 0.00 0.00 0.00 85 1018.7
20260505090828 10 180 6.4 12.9 0.00 0.00 0.00 86 1018.5
20260505085830 10 164 9.7 12.9 0.00 0.00 0.00 86 1018.6
20260505084928 10 178 8.0 12.9 0.00 0.00 0.00 86 1018.6
20260505083930 10 173 9.7 12.9 0.00 0.00 0.00 87 1018.6
20260505082929 10 180 6.4 9.7 0.00 0.00 0.00 88 1018.7
20260505081929 10 179 8.0 12.9 0.00 0.00 0.00 87 1018.6
20260505080929 10 180 6.4 8.0 0.00 0.00 0.00 88 1018.7
20260505075929 10 183 8.0 12.9 0.00 0.00 0.00 89 1018.8
20260505074927 10 175 8.0 14.5 0.00 0.00 0.00 89 1018.8
20260505074829 10 180 6.4 11.3 0.00 0.00 0.00 89 1018.8
20260505073828 10 176 6.4 11.3 0.00 0.00 0.00 89 1018.8
20260505072827 10 180 6.4 11.3 0.00 0.00 0.00 89 1018.8
20260505072731 10 180 6.4 8.0 0.00 0.00 0.00 89 1018.9
20260505072632 10 180 4.8 8.0 0.00 0.00 0.00 89 1018.8
20260505071728 10 179 6.4 14.5 0.00 0.00 0.00 89 1018.8
20260505070743 10 194 3.2 8.0 0.00 0.00 0.00 89 1018.8
20260505065729 10 193 4.8 11.3 0.00 0.00 0.00 88 1018.8
20260505064729 10 184 6.4 14.5 0.00 0.00 0.00 90 1018.8
20260505064627 10 183 4.8 14.5 0.00 0.00 0.00 89 1018.8
20260505063629 10 180 6.4 14.5 0.00 0.00 0.00 90 1018.8
20260505062629 10 180 3.2 9.7 0.00 0.00 0.00 89 1018.8
20260505061630 10 196 4.8 9.7 0.00 0.00 0.00 90 1018.8
20260505060629 10 199 4.8 11.3 0.00 0.00 0.00 89 1018.8
20260505055644 10 200 3.2 8.0 0.00 0.00 0.00 89 1018.8
20260505054629 10 200 0.0 4.8 0.00 0.00 0.00 88 1018.8
20260505052529 10 202 3.2 9.7 0.00 0.00 0.00 88 1018.8
20260505051527 10 180 3.2 8.0 0.00 0.00 0.00 88 1018.9
20260505050529 10 207 4.8 14.5 0.00 0.00 0.00 88 1019.1
20260505041429 10 177 8.0 12.9 0.00 0.00 0.00 87 1019.1
20260505040428 10 176 9.7 19.3 0.00 0.00 0.00 87 1019.1
20260505040346 10 183 9.7 14.5 0.00 0.00 0.00 87 1019.0
20260505040228 10 180 9.7 16.1 0.00 0.00 0.00 86 1019.0
20260505033321 10 203 6.4 11.3 0.00 0.00 0.00 86 1019.4
20260505032321 10 196 3.2 14.5 0.00 0.00 0.00 86 1019.4
20260505031321 10 184 6.4 16.1 0.00 0.00 0.00 86 1019.4
20260505030323 10 191 6.4 14.5 0.00 0.00 0.00 86 1019.5
20260505024322 10 183 6.4 11.3 0.00 0.00 0.00 85 1019.7
20260505023322 10 180 1.6 6.4 0.00 0.00 0.00 84 1019.7
20260505022323 10 192 6.4 16.1 0.00 0.00 0.00 83 1019.7
20260505021322 10 225 3.2 11.3 0.00 0.00 0.00 84 1019.8
20260505014322 10 205 9.7 12.9 0.00 0.00 0.00 82 1019.3
20260505013323 10 199 4.8 9.7 0.00 0.00 0.00 81 1019.3
20260505010324 10 224 9.7 17.7 0.00 0.00 0.00 78 1018.8
20260505005419 10 225 4.8 14.5 0.00 0.00 0.00 77 1018.7
20260505005323 10 223 8.0 16.1 0.00 0.00 0.00 77 1018.6
20260505003420 10 221 8.0 17.7 0.00 0.00 0.00 77 1018.4
20260505002423 10 221 9.7 19.3 0.00 0.00 0.00 77 1018.2
20260505001521 10 227 8.0 12.9 0.00 0.00 0.00 76 1017.9
20260505001422 10 232 11.3 17.7 0.00 0.00 0.00 77 1018.0
20260504235522 10 185 3.2 11.3 0.00 0.00 0.00 77 1018.0
20260504234522 10 220 8.0 17.7 0.00 0.00 0.00 77 1017.7
20260504233619 11 222 8.0 11.3 0.00 0.00 0.00 76 1017.7
20260504233523 11 205 6.4 16.1 0.00 0.00 0.00 76 1017.7
20260504232620 11 231 9.7 16.1 0.00 0.00 0.00 75 1017.7
20260504231620 11 218 6.4 16.1 0.00 0.00 0.00 74 1017.6
20260504225720 11 214 8.0 16.1 0.00 0.00 0.00 72 1017.5
20260504224724 12 203 8.0 17.7 0.00 0.00 0.00 71 1017.4
20260504224621 12 224 8.0 19.3 0.00 0.00 0.00 71 1017.5
20260504223520 12 202 11.3 20.9 0.00 0.00 0.00 71 1017.4
20260504222522 12 208 11.3 22.5 0.00 0.00 0.00 71 1017.5
20260504220621 12 221 11.3 25.7 0.00 0.00 0.00 70 1017.5
20260504220538 12 217 8.0 12.9 0.00 0.00 0.00 69 1017.4
20260504215521 12 217 11.3 25.7 0.00 0.00 0.00 69 1017.4
20260504215422 12 205 12.9 19.3 0.00 0.00 0.00 69 1017.4
20260504214421 12 201 8.0 16.1 0.00 0.00 0.00 69 1017.5
20260504213421 12 197 8.0 14.5 0.00 0.00 0.00 68 1017.4
20260504211422 12 224 9.7 19.3 0.00 0.00 0.00 68 1017.4
20260504210421 12 217 12.9 29.0 0.00 0.00 0.00 67 1017.5
20260504205421 13 199 11.3 27.4 0.00 0.00 0.00 67 1017.5
20260504204421 13 228 14.5 35.4 0.00 0.00 0.00 66 1017.3
20260504203422 13 212 11.3 20.9 0.00 0.00 0.00 64 1017.2
20260504203320 13 221 11.3 20.9 0.00 0.00 0.00 65 1017.2
20260504202220 13 221 9.7 17.7 0.00 0.00 0.00 64 1017.2
20260504201219 13 227 6.4 16.1 0.00 0.00 0.00 65 1017.0
20260504200224 13 190 9.7 17.7 0.00 0.00 0.00 66 1017.0
20260504194322 12 213 12.9 22.5 0.00 0.00 0.00 70 1017.2
20260504194223 12 208 8.0 11.3 0.00 0.00 0.00 71 1017.2
20260504194121 12 206 14.5 29.0 0.00 0.00 0.00 70 1017.2
20260504194022 12 225 6.4 17.7 0.00 0.00 0.00 71 1017.2
20260504193120 12 212 9.7 16.1 0.00 0.00 0.00 70 1017.2
20260504193020 12 222 12.9 22.5 0.00 0.00 0.00 71 1017.2
20260504192022 12 204 9.7 17.7 0.00 0.00 0.00 71 1017.4
20260504191022 13 207 11.3 20.9 0.00 0.00 0.00 69 1017.3
20260504190119 12 206 8.0 17.7 0.00 0.00 0.00 70 1017.5
20260504190021 12 211 12.9 29.0 0.00 0.00 0.00 70 1017.5
20260504185119 12 216 9.7 17.7 0.00 0.00 0.00 69 1017.6
20260504184123 12 218 11.3 17.7 0.00 0.00 0.00 71 1017.5
20260504183120 12 223 14.5 29.0 0.00 0.00 0.00 71 1017.5
20260504183023 12 217 11.3 33.8 0.00 0.00 0.00 71 1017.5
20260504182020 12 206 9.7 19.3 0.00 0.00 0.00 72 1017.5
20260504180922 12 217 14.5 22.5 0.00 0.00 0.00 71 1017.4
20260504180823 12 213 12.9 25.7 0.00 0.00 0.00 72 1017.3
20260504175820 12 200 11.3 20.9 0.00 0.00 0.00 72 1017.3
20260504174920 12 207 12.9 25.7 0.00 0.00 0.00 72 1017.2
20260504174822 12 199 12.9 17.7 0.00 0.00 0.00 73 1017.2
20260504173919 12 198 8.0 12.9 0.00 0.00 0.00 72 1017.3
20260504172922 12 213 9.7 17.7 0.00 0.00 0.00 72 1017.5
20260504170822 12 204 12.9 17.7 0.00 0.00 0.00 71 1017.4
20260504150521 12 217 9.7 17.7 0.00 0.00 0.00 71 1018.2
20260504141321 12 198 8.0 14.5 0.00 0.00 0.00 69 1018.6
20260504141221 12 194 8.0 14.5 0.00 0.00 0.00 70 1018.6
20260504141120 12 207 6.4 12.9 0.00 0.00 0.00 70 1018.6
20260504140123 12 211 12.9 24.1 0.00 0.00 0.00 69 1018.6
20260504130120 12 210 6.4 17.7 0.00 0.00 0.00 68 1018.8